Temperature
21 21 20 19 18 18 20 24 28 29 29 29 29 28 27 26 25 23 22 23 23 23 22 22 22 21 21 21 21 21 21 20 20 20 20 20 19 19 19 19 19 19 19 19 19 19 19 19 19
21 21 20 19 18 21 23 27 29 30 29 29 29 28 27 25 23 22 22 23 23 23 22 22 22 21 21 21 21 21 20 20 20 20 20 20 19 19 19 19 19 19 19 19 19 19 19 19 19
21 21 20 18 20 22 25 28 29 30 29 29 28 28 27 26 23 23 23 23 23 23 22 22 22 22 21 21 21 21 20 20 20 20 20 20 20 19 19 19 19 19 19 19 19 19 19 19 19
21 20 20 19 21 24 26 28 29 29 28 28 27 26 26 26 25 24 23 23 24 23 22 22 22 22 22 21 21 21 21 20 20 20 20 20 20 20 20 20 20 19 19 19 19 19 19 20 20
21 21 19 20 22 26 29 30 29 28 27 27 26 25 25 25 26 25 24 24 24 23 22 22 22 22 22 22 21 21 21 21 20 20 20 20 20 20 20 20 20 20 19 19 19 19 20 20 20
21 20 20 21 24 28 29 30 28 27 26 26 26 24 25 24 25 24 23 24 24 23 23 22 22 22 22 21 21 21 21 21 20 20 20 20 20 19 19 19 19 19 19 19 19 19 19 20 20
21 20 21 23 25 27 29 29 28 26 26 25 25 23 24 24 24 23 23 23 23 23 23 22 22 22 21 21 21 21 21 21 20 20 20 20 20 19 19 19 19 19 19 19 19 19 19 19 19
24 20 22 23 25 27 28 28 27 26 25 25 25 24 24 24 23 23 23 22 22 22 22 22 21 21 21 21 21 20 20 20 20 20 20 20 20 20 19 19 19 19 19 18 18 19 19 19 19
24 20 20 23 26 26 28 27 27 25 24 24 24 25 24 24 23 22 22 21 21 21 21 21 20 20 20 20 20 20 20 20 20 20 20 20 20 19 19 19 19 19 18 18 18 18 18 18 18
24 20 21 24 26 27 27 27 26 24 24 23 23 24 24 23 23 22 21 20 20 20 20 20 20 20 20 20 20 20 20 20 19 19 19 19 19 19 19 19 19 18 18 18 18 18 18 18 18
24 22 23 26 27 27 26 25 24 23 22 22 22 22 23 23 22 21 20 20 20 20 20 19 19 20 20 20 20 20 20 19 19 19 19 19 19 18 18 18 18 18 18 18 17 17 17 17 17
24 24 26 27 28 28 26 24 22 22 21 21 22 22 22 22 21 20 20 19 19 19 19 19 19 19 19 20 19 19 19 19 19 19 18 18 18 18 18 18 18 18 18 17 17 17 17 17 17
25 25 27 28 28 27 24 22 21 20 20 20 21 21 20 20 20 19 19 19 19 19 19 19 19 19 19 19 19 19 19 18 18 18 18 18 18 17 17 18 18 17 17 17 17 17 17 17 17
26 27 27 26 26 25 23 21 20 19 19 19 19 19 19 19 19 19 19 19 19 19 19 18 19 19 19 19 19 19 18 18 18 18 18 17 17 17 17 17 17 17 17 17 17 17 17 17 16
27 25 25 24 24 24 23 21 20 19 19 19 18 18 18 18 19 19 19 19 19 19 18 18 18 18 19 19 18 18 18 18 18 18 17 17 17 17 17 17 17 17 17 17 17 16 16 16 16
25 24 23 24 23 24 22 19 19 19 19 18 18 18 18 18 18 18 18 18 18 18 18 18 18 18 18 18 18 18 18 17 17 17 17 17 17 17 16 16 16 16 16 16 16 16 16 16 16
23 23 23 23 23 23 21 19 19 19 19 18 18 18 18 18 18 18 18 18 18 18 18 18 18 18 18 18 18 18 17 17 17 16 16 16 16 16 16 16 16 16 16 16 16 16 16 16 16
23 23 23 22 22 22 20 19 19 18 19 18 18 18 18 18 18 18 18 18 18 18 18 18 18 18 18 18 17 17 17 16 16 16 16 16 16 16 16 16 16 16 16 16 15 15 15 15 15
24 24 22 22 22 20 19 18 18 18 18 18 18 19 18 18 18 18 18 18 18 18 18 18 18 17 17 17 16 16 16 16 15 15 15 15 15 15 15 15 15 15 15 15 15 15 15 15 15
25 24 22 22 22 20 18 18 18 18 18 18 18 19 19 19 19 19 19 18 18 18 18 18 17 17 17 16 16 15 15 15 14 14 14 14 14 14 14 14 15 15 15 15 15 15 15 15 15
24 23 22 21 20 19 18 17 17 17 18 18 19 19 19 19 19 19 19 19 18 18 18 18 17 17 16 16 15 15 15 14 14 14 14 14 14 14 14 14 14 14 14 14 14 15 15 15 15
23 24 24 22 19 17 18 17 17 17 17 18 18 19 19 19 20 20 19 19 19 18 18 18 17 17 16 16 15 15 14 13 13 13 13 13 13 13 13 14 14 14 14 14 14 14 14 14 15
24 24 23 21 18 17 17 17 17 16 17 17 18 19 20 20 20 20 20 19 19 18 18 17 17 16 16 15 15 14 13 13 12 12 12 12 12 12 13 13 13 13 14 14 14 14 14 14 14
24 22 20 18 17 17 17 17 17 16 17 18 18 20 20 20 20 20 20 19 19 18 18 17 17 16 15 14 14 13 13 12 12 11 11 11 12 12 12 12 12 13 13 13 13 13 13 14 14
23 20 19 19 17 17 17 17 17 17 18 18 19 20 21 21 20 20 20 19 19 18 17 17 16 15 15 14 13 13 12 12 11 11 11 11 11 11 11 11 12 12 12 12 12 12 13 13 13
24 21 20 20 18 17 17 17 17 19 19 20 20 20 20 20 20 20 19 19 18 18 17 16 16 15 14 13 13 12 12 11 11 11 10 10 10 10 10 10 11 11 11 11 12 12 12 12 12
25 22 21 18 17 16 17 17 18 19 20 20 20 20 20 20 20 19 19 18 18 17 17 16 15 14 13 13 12 12 11 11 10 10 10 10 9 9 9 10 10 10 11 11 11 11 11 12 12
24 23 19 18 18 18 18 18 17 19 19 19 19 20 20 20 19 19 19 18 18 17 16 15 14 14 13 12 12 11 11 10 10 10 9 9 9 9 9 9 9 10 10 10 10 10 11 11 11
24 24 19 17 17 17 18 18 19 19 19 18 19 20 20 20 20 19 19 18 17 17 16 15 14 13 13 12 12 11 11 10 10 9 9 9 9 8 8 8 9 9 9 9 9 10 10 10 10
24 23 20 19 20 17 17 18 20 18 19 19 20 20 20 20 19 19 18 18 17 16 15 14 13 13 12 12 11 11 10 10 10 9 9 9 8 8 8 8 8 8 8 8 9 9 9 9 9
Wind_Speed
17 14 5 3 1 2 6 7 4 2 5 8 12 11 8 7 5 5 3 14 19 18 16 18 18 17 17 16 16 16 16 15 15 15 15 15 15 14 14 13 12 12 12 11 11 11 11 11 11
14 8 3 2 1 3 7 6 1 6 10 13 12 10 8 8 9 10 7 14 19 16 16 17 19 17 16 16 16 16 16 15 15 14 14 14 14 13 13 12 12 11 11 11 11 11 11 10 10
12 6 3 2 4 5 6 4 4 9 10 10 6 6 6 6 10 8 11 18 16 13 15 18 20 18 17 16 16 16 16 15 15 14 14 14 13 13 13 12 11 11 11 10 11 11 11 10 10
6 2 1 2 8 9 9 12 2 9 10 10 8 6 5 4 6 12 19 18 17 12 14 18 19 18 17 16 16 16 15 15 14 14 14 14 13 13 12 12 11 11 11 10 11 11 11 11 10
3 3 2 5 8 8 10 7 6 12 7 11 12 6 5 6 18 23 20 19 18 13 13 17 19 18 17 16 15 15 14 14 13 13 13 13 12 12 12 11 11 11 11 11 12 12 11 11 11
2 2 1 5 8 10 6 7 16 18 13 10 9 6 3 8 17 19 18 16 16 16 12 15 18 18 16 15 15 14 13 12 12 11 11 11 10 10 10 11 11 11 11 12 12 12 12 12 11
3 2 4 5 8 8 5 6 12 12 9 5 6 6 2 5 12 17 17 15 14 13 11 10 13 15 15 14 13 13 12 11 11 10 10 10 10 10 10 10 11 11 11 12 12 12 12 12 12
5 2 4 5 6 6 6 7 9 11 8 6 5 7 4 5 11 15 15 14 12 10 9 7 9 10 11 11 12 12 11 11 10 10 10 10 10 11 11 12 12 13 13 13 14 13 13 13 12
1 2 4 5 4 6 6 8 9 10 11 7 5 6 8 14 18 16 14 11 10 9 7 6 6 7 9 10 11 12 12 11 11 11 11 11 10 10 10 12 13 14 15 15 15 15 14 13 13
4 3 8 7 6 5 5 5 6 8 11 9 9 11 14 15 17 16 14 12 10 9 8 7 6 6 8 9 10 10 10 10 11 10 10 10 10 11 11 12 15 17 18 17 16 14 13 12 10
5 8 10 13 13 5 2 7 7 10 9 7 11 12 14 17 15 15 14 12 9 9 9 6 5 4 4 4 7 7 7 8 10 11 12 11 10 10 9 8 9 12 15 14 13 12 10 8 7
6 11 12 12 13 5 1 6 9 11 9 11 14 14 16 18 15 14 13 11 9 9 9 6 4 4 3 4 3 4 4 4 6 10 12 9 5 5 6 5 6 6 7 7 9 7 7 8 8
9 13 16 14 8 0 10 12 12 11 13 16 18 18 17 17 15 13 12 10 9 9 8 6 5 4 3 3 1 1 1 2 4 6 9 9 5 5 3 3 5 5 6 6 5 5 6 6 7
7 7 7 4 2 4 14 10 8 8 11 16 17 15 14 14 13 12 11 9 8 8 7 6 6 5 4 4 3 2 2 1 0 2 4 6 5 4 4 4 3 4 5 6 6 6 7 6 6
5 7 7 7 5 4 10 11 8 8 10 12 13 12 13 11 10 10 8 8 7 6 6 6 7 7 7 6 6 4 4 4 2 2 1 2 3 4 3 3 3 4 6 6 5 5 5 6 7
5 4 4 5 5 3 9 7 7 7 10 9 9 10 10 8 8 8 8 7 6 6 7 6 8 9 9 8 7 5 6 6 4 4 3 1 0 1 2 2 4 4 5 4 4 4 4 5 6
4 1 2 3 5 4 7 5 5 6 9 7 6 7 7 6 6 6 7 7 6 6 6 6 7 8 8 8 6 5 6 5 6 6 4 2 1 0 1 2 3 3 3 3 4 4 4 5 6
4 2 1 1 4 6 6 6 6 5 5 3 3 5 6 6 6 6 7 7 6 6 6 6 6 6 6 6 6 6 7 6 6 5 5 4 2 1 0 1 3 2 3 4 4 5 5 4 5
4 2 1 1 3 6 8 8 6 4 3 1 1 4 5 5 6 7 7 7 6 5 6 5 5 4 4 4 3 3 4 5 5 5 8 7 6 4 2 2 3 2 3 5 6 5 5 5 3
4 2 2 1 4 4 6 7 4 0 2 6 6 6 6 5 6 7 7 7 6 6 6 6 6 5 4 3 2 1 1 2 2 3 6 8 9 8 5 4 4 3 3 4 4 4 3 4 4
3 6 6 5 5 5 5 2 2 2 3 6 8 7 7 9 10 9 9 9 7 7 8 7 7 6 5 4 2 2 3 3 4 5 5 6 9 9 7 6 5 4 3 3 4 3 5 5 4
2 7 11 12 8 2 3 4 5 3 3 5 7 8 10 10 9 9 10 9 8 8 7 8 7 6 5 5 3 3 1 2 3 3 4 7 7 8 8 7 6 5 3 3 3 1 2 3 4
5 7 9 10 8 4 2 2 4 2 4 6 8 10 11 10 10 10 9 9 8 7 7 7 6 5 4 4 4 3 2 3 3 4 5 6 6 6 7 7 7 5 3 3 3 2 1 1 2
9 7 7 6 5 3 2 1 5 4 6 6 8 10 11 10 9 7 5 5 5 4 5 6 6 4 3 3 3 3 4 4 4 5 4 5 5 6 7 7 7 6 4 4 4 3 2 2 2
5 5 4 5 5 1 2 1 7 7 7 9 10 10 9 7 6 5 5 5 4 5 5 5 5 3 3 3 3 3 4 3 4 4 3 4 4 4 6 6 6 6 6 6 5 4 5 3 3
1 8 6 3 3 1 3 3 7 7 5 7 8 6 5 5 5 6 6 6 5 5 5 5 4 3 3 3 3 3 2 2 3 3 3 4 4 4 5 5 6 6 6 7 6 5 5 5 5
3 1 6 7 5 4 2 4 7 6 3 5 6 6 6 7 7 7 6 6 6 6 5 5 5 3 3 3 3 2 2 2 3 4 4 4 4 5 5 5 6 6 6 6 6 5 6 6 6
5 4 7 5 4 3 2 4 5 6 7 6 7 8 7 7 7 7 6 6 5 5 5 4 4 4 3 3 3 3 3 4 4 4 5 6 5 5 6 7 7 7 7 6 6 6 6 6 6
4 4 6 5 7 6 4 5 7 11 9 9 8 9 9 9 8 6 6 5 5 5 5 4 4 3 3 4 4 4 4 5 5 5 6 6 6 6 7 7 7 7 8 7 6 6 7 7 7
3 5 6 5 0 5 5 5 4 9 9 10 9 9 9 9 8 7 6 5 4 5 4 4 4 4 5 5 5 5 6 6 6 7 8 7 8 8 8 8 8 8 8 8 7 8 8 8 8
Wind_Direction
152 147 135 107 81 246 258 252 235 57 59 65 71 77 76 56 91 126 103 142 137 144 146 143 139 136 135 135 135 135 134 131 130 128 127 127 128 129 131 134 137 140 141 143 144 144 143 140 138
148 146 135 100 212 280 270 252 167 107 122 106 80 72 69 73 90 109 113 137 138 139 138 139 136 134 134 135 137 138 139 138 139 139 140 140 141 142 144 146 149 150 152 154 156 155 154 153 152
158 170 134 167 239 234 268 291 112 99 93 90 75 47 49 86 112 125 137 139 133 133 134 139 136 134 134 136 138 140 142 144 147 149 151 152 154 156 157 159 162 163 164 165 167 165 165 165 166
152 147 322 235 251 251 256 269 215 101 69 69 85 53 27 29 108 132 139 140 134 130 133 140 138 137 137 138 139 142 145 150 154 158 161 163 166 168 169 172 175 177 179 179 178 176 175 175 179
99 138 239 272 266 269 275 256 120 95 92 89 89 82 32 30 115 133 142 143 137 133 137 142 142 142 143 143 144 146 150 155 160 165 170 174 177 180 181 184 188 191 194 193 190 187 186 186 189
140 164 226 279 289 299 314 94 96 96 106 101 96 94 47 104 127 141 142 140 139 141 142 146 148 149 150 149 150 152 156 161 166 172 179 184 189 193 197 201 204 207 208 202 197 194 193 194 196
175 185 239 274 300 320 358 65 90 103 103 102 115 97 69 113 141 140 136 133 136 140 142 144 151 154 156 157 158 160 163 169 175 183 190 196 203 208 213 217 220 219 218 212 206 203 203 204 205
182 108 295 297 306 319 348 53 87 94 89 97 100 116 143 138 126 127 124 125 128 134 142 140 146 150 156 164 168 171 175 181 187 195 202 208 215 220 224 225 228 228 225 221 217 214 213 215 216
168 58 270 265 288 299 335 65 65 73 92 80 72 103 127 123 117 119 119 116 125 135 142 143 149 158 165 171 180 183 189 194 199 206 213 217 222 230 236 236 236 236 233 228 224 222 222 224 227
139 185 239 235 256 291 345 61 92 84 77 79 81 80 95 107 114 118 121 118 121 131 149 161 162 172 178 185 184 193 201 205 208 211 219 222 222 227 237 240 242 242 240 236 232 232 232 234 236
197 218 247 264 266 261 65 54 55 103 79 101 112 102 94 91 93 103 105 106 111 118 128 135 139 147 162 170 172 195 211 214 220 221 223 226 226 229 236 236 248 246 242 235 230 232 231 231 230
245 259 260 268 273 264 124 97 67 71 101 104 101 98 91 91 94 103 104 100 98 101 107 110 102 97 103 123 155 189 208 219 221 227 225 219 220 223 225 229 235 236 228 218 218 214 217 228 236
250 262 272 272 280 308 93 92 92 78 92 93 91 89 89 91 94 95 95 91 88 88 88 87 90 88 86 93 108 130 231 230 224 224 223 215 214 228 230 234 234 230 223 212 209 209 208 209 223
257 280 299 317 58 81 102 89 82 83 89 89 87 88 91 92 96 97 96 93 87 87 89 83 68 63 65 63 53 40 7 358 33 218 224 213 214 220 228 234 239 241 234 223 213 209 211 213 217
306 328 348 13 43 82 96 68 83 102 93 92 94 96 96 97 97 98 104 103 97 86 81 87 73 51 47 39 33 32 21 26 20 346 292 220 215 225 223 236 246 247 244 233 222 219 213 217 222
349 7 1 346 23 51 90 103 118 107 94 93 100 103 102 100 103 109 111 110 106 97 81 68 70 59 50 40 32 23 21 21 6 356 354 353 306 237 224 244 254 256 248 227 221 218 217 223 225
3 333 285 334 19 49 85 121 121 95 92 94 106 113 112 112 113 122 125 127 127 120 106 83 69 64 56 45 35 25 18 11 356 348 343 345 23 41 192 250 263 269 254 241 237 224 215 222 228
266 256 300 339 357 45 75 90 84 73 82 100 119 124 124 130 151 154 149 147 142 133 122 106 87 78 67 49 35 23 13 359 351 345 331 321 310 337 339 266 279 276 263 257 245 237 227 225 225
219 184 190 290 40 53 66 64 54 49 42 330 174 141 141 159 175 173 172 165 154 144 136 134 119 102 85 64 51 32 357 345 346 348 346 341 330 327 321 294 296 284 261 259 251 238 236 236 213
231 178 206 61 76 74 81 71 64 56 230 239 206 178 177 188 188 188 188 183 180 174 167 159 149 135 122 119 127 152 261 310 325 337 348 350 339 326 319 295 279 270 274 287 272 239 234 237 201
234 178 186 149 91 68 95 93 206 229 233 224 199 184 188 195 197 197 191 192 188 184 181 172 165 151 145 137 111 48 17 354 348 339 336 331 328 321 316 298 280 260 239 265 280 258 232 243 235
216 187 164 153 132 153 190 197 233 200 228 205 190 188 200 206 203 198 192 192 193 193 180 169 164 159 159 147 139 154 172 260 270 282 303 317 326 327 326 316 300 266 237 240 267 294 242 235 252
173 153 142 140 127 101 29 146 267 180 219 223 207 201 207 210 206 200 193 189 186 176 166 163 162 169 179 173 169 172 208 239 271 300 321 325 326 332 338 333 330 306 270 248 248 278 302 248 252
129 97 77 75 88 66 293 182 273 218 212 217 220 215 212 212 207 193 175 155 151 151 148 155 163 188 205 200 197 194 224 255 289 312 321 321 320 326 334 338 343 336 319 288 274 268 273 270 279
101 97 42 19 38 313 293 287 262 248 235 217 222 223 217 203 181 160 145 138 143 149 155 162 168 198 224 219 229 232 238 250 265 274 276 295 309 313 316 333 335 335 325 310 296 285 276 268 271
130 129 146 189 169 195 302 272 270 279 256 217 218 217 193 159 139 139 145 144 147 149 152 159 172 202 230 237 258 264 262 239 245 253 261 276 277 279 290 309 318 320 322 322 314 296 281 271 263
54 50 154 127 101 106 243 294 303 297 260 208 197 165 151 143 141 143 145 149 154 154 165 175 181 207 241 254 267 270 254 257 268 276 278 285 287 291 306 309 312 312 314 314 315 300 289 282 266
121 123 71 82 115 111 194 227 222 216 204 182 155 149 154 153 151 150 157 166 171 176 185 187 187 203 224 231 237 240 251 262 267 276 285 284 285 290 301 304 304 304 303 302 304 299 293 289 277
21 42 92 102 132 138 185 251 221 196 185 166 164 165 167 168 166 172 178 182 183 189 193 197 204 213 229 234 242 253 255 258 262 264 267 265 265 272 276 279 284 288 290 291 292 291 293 289 287
173 171 138 126 138 136 143 257 277 166 162 155 167 178 179 175 179 183 187 193 204 212 217 219 224 231 236 238 243 249 254 259 260 260 261 258 258 259 258 260 265 270 275 275 277 281 287 280 279
Height
1532 1533 1536 1540 1542 1543 1534 1513 1496 1491 1491 1491 1490 1492 1496 1500 1505 1514 1511 1512 1514 1516 1519 1522 1525 1527 1529 1531 1533 1535 1537 1538 1540 1541 1542 1543 1544 1545 1546 1546 1547 1548 1549 1550 1551 1552 1553 1553 1554
1532 1534 1538 1540 1543 1542 1526 1502 1493 1490 1490 1490 1493 1496 1498 1503 1505 1507 1510 1514 1516 1517 1520 1523 1525 1528 1529 1531 1533 1535 1537 1538 1540 1541 1542 1543 1544 1545 1546 1546 1547 1548 1549 1550 1551 1552 1553 1553 1554
1533 1535 1538 1539 1539 1534 1518 1498 1492 1490 1490 1490 1495 1499 1502 1506 1508 1510 1513 1515 1517 1519 1521 1524 1526 1528 1530 1532 1533 1535 1537 1539 1540 1541 1542 1543 1544 1545 1545 1546 1547 1548 1549 1550 1550 1551 1552 1553 1554
1534 1536 1537 1539 1535 1518 1506 1496 1493 1489 1492 1493 1497 1503 1506 1509 1510 1512 1514 1517 1518 1520 1523 1525 1527 1529 1530 1532 1534 1536 1537 1539 1540 1541 1542 1543 1543 1544 1545 1545 1546 1547 1548 1549 1550 1551 1552 1553 1554
1534 1535 1538 1538 1526 1507 1496 1491 1489 1488 1493 1496 1498 1506 1509 1511 1512 1514 1516 1519 1520 1522 1524 1526 1528 1530 1531 1533 1535 1536 1538 1539 1540 1541 1541 1542 1543 1543 1544 1545 1545 1546 1547 1548 1549 1550 1551 1552 1554
1533 1533 1540 1539 1522 1505 1496 1491 1489 1493 1497 1498 1500 1505 1511 1514 1514 1516 1519 1521 1522 1523 1525 1527 1529 1531 1532 1534 1535 1536 1537 1538 1539 1540 1540 1541 1542 1542 1543 1544 1544 1545 1546 1547 1548 1549 1550 1551 1553
1532 1532 1536 1530 1523 1510 1499 1495 1494 1496 1499 1500 1501 1506 1512 1516 1518 1518 1520 1522 1524 1525 1527 1528 1530 1532 1533 1534 1536 1536 1537 1538 1539 1539 1540 1540 1541 1541 1542 1543 1543 1544 1545 1546 1547 1548 1549 1550 1552
1528 1530 1532 1529 1522 1515 1503 1498 1498 1497 1501 1504 1504 1507 1513 1517 1519 1521 1522 1524 1526 1527 1528 1530 1531 1533 1534 1535 1536 1537 1537 1538 1538 1538 1539 1539 1540 1540 1541 1541 1542 1543 1544 1545 1546 1546 1547 1549 1550
1527 1534 1537 1528 1519 1513 1505 1502 1503 1504 1504 1506 1507 1509 1512 1515 1518 1521 1523 1525 1527 1528 1530 1531 1532 1533 1534 1535 1536 1537 1537 1537 1538 1538 1538 1538 1538 1539 1539 1539 1540 1540 1541 1542 1543 1544 1545 1546 1548
1523 1535 1528 1516 1511 1509 1506 1504 1505 1509 1508 1510 1512 1514 1516 1518 1519 1521 1523 1525 1527 1528 1530 1532 1533 1534 1534 1535 1535 1536 1536 1536 1536 1536 1536 1537 1537 1537 1537 1537 1537 1538 1538 1539 1540 1541 1542 1543 1544
1519 1522 1514 1509 1507 1507 1507 1507 1507 1509 1514 1515 1514 1515 1517 1518 1520 1522 1524 1526 1527 1528 1530 1532 1533 1533 1534 1534 1535 1535 1535 1535 1535 1535 1535 1535 1535 1534 1534 1534 1534 1534 1535 1535 1536 1536 1537 1538 1539
1516 1511 1509 1505 1503 1504 1505 1508 1511 1512 1517 1517 1516 1516 1518 1519 1521 1524 1525 1527 1528 1529 1530 1532 1533 1533 1533 1533 1533 1533 1533 1533 1532 1532 1532 1532 1531 1531 1531 1531 1531 1531 1531 1531 1531 1532 1532 1533 1534
1513 1508 1504 1502 1501 1503 1505 1510 1514 1519 1520 1519 1519 1519 1520 1521 1523 1525 1527 1529 1529 1530 1531 1532 1533 1533 1533 1532 1532 1532 1531 1531 1530 1529 1529 1529 1528 1528 1527 1527 1527 1527 1526 1526 1526 1526 1527 1527 1527
1509 1506 1504 1501 1500 1502 1506 1514 1516 1524 1523 1522 1521 1522 1523 1524 1525 1527 1528 1529 1530 1531 1531 1532 1532 1532 1532 1531 1531 1531 1530 1529 1528 1528 1527 1526 1525 1525 1524 1524 1523 1523 1522 1522 1521 1521 1521 1521 1522
1505 1505 1504 1503 1502 1506 1507 1518 1522 1525 1525 1525 1525 1526 1526 1527 1528 1528 1530 1530 1531 1531 1531 1531 1531 1531 1531 1531 1530 1530 1529 1528 1527 1526 1525 1524 1523 1522 1521 1520 1519 1519 1518 1517 1516 1516 1516 1516 1516
1505 1510 1515 1508 1505 1506 1511 1528 1526 1526 1526 1527 1528 1528 1529 1529 1529 1530 1531 1531 1531 1531 1531 1531 1531 1531 1531 1530 1530 1529 1528 1527 1526 1524 1523 1522 1521 1519 1518 1517 1516 1515 1514 1513 1512 1512 1511 1511 1511
1514 1520 1518 1513 1507 1508 1513 1525 1526 1526 1527 1529 1529 1530 1530 1531 1531 1532 1532 1532 1532 1532 1532 1532 1532 1531 1531 1530 1530 1529 1527 1526 1524 1522 1521 1520 1518 1517 1515 1514 1513 1512 1510 1509 1508 1508 1507 1507 1506
1523 1520 1519 1518 1511 1512 1519 1526 1527 1527 1528 1529 1530 1531 1531 1532 1533 1533 1533 1533 1533 1533 1533 1532 1532 1532 1531 1530 1529 1527 1526 1524 1522 1520 1518 1517 1516 1514 1513 1511 1510 1508 1507 1505 1505 1504 1503 1503 1503
1510 1514 1518 1516 1512 1517 1524 1529 1529 1528 1529 1531 1531 1531 1532 1532 1534 1534 1534 1534 1533 1533 1532 1532 1531 1530 1529 1527 1526 1525 1523 1521 1519 1517 1515 1514 1513 1511 1510 1508 1507 1505 1503 1502 1501 1500 1499 1499 1499
1505 1513 1517 1516 1514 1520 1527 1531 1531 1530 1530 1531 1531 1531 1531 1532 1533 1533 1533 1533 1532 1531 1530 1529 1528 1527 1526 1524 1523 1521 1520 1518 1515 1513 1512 1510 1509 1508 1506 1505 1503 1502 1500 1499 1497 1496 1495 1495 1496
1505 1511 1514 1520 1521 1525 1531 1539 1534 1531 1529 1529 1529 1529 1530 1531 1531 1531 1531 1531 1530 1529 1528 1527 1526 1524 1523 1521 1520 1518 1516 1514 1511 1509 1507 1506 1505 1504 1502 1501 1500 1498 1497 1496 1494 1493 1492 1492 1492
1510 1500 1503 1513 1527 1538 1535 1547 1537 1532 1531 1529 1529 1528 1528 1529 1529 1529 1529 1528 1528 1527 1526 1525 1524 1522 1521 1519 1517 1515 1512 1510 1507 1505 1503 1501 1500 1499 1498 1497 1495 1494 1493 1493 1491 1490 1489 1488 1488
1501 1497 1503 1512 1527 1538 1538 1544 1539 1533 1533 1529 1527 1526 1527 1527 1527 1526 1526 1526 1526 1526 1525 1524 1522 1520 1518 1516 1514 1511 1509 1507 1504 1502 1499 1498 1496 1495 1494 1492 1491 1490 1489 1489 1488 1488 1486 1485 1485
1496 1505 1514 1523 1532 1547 1542 1544 1541 1532 1528 1525 1524 1524 1524 1525 1525 1525 1526 1526 1526 1525 1524 1522 1520 1518 1516 1514 1511 1509 1506 1504 1501 1498 1496 1494 1493 1492 1490 1489 1487 1486 1485 1485 1484 1484 1483 1482 1482
1498 1515 1534 1539 1550 1552 1541 1543 1538 1522 1519 1520 1521 1521 1523 1524 1524 1525 1525 1525 1524 1523 1522 1520 1518 1516 1513 1511 1509 1506 1503 1501 1498 1495 1493 1491 1488 1487 1485 1484 1482 1482 1481 1480 1480 1479 1479 1479 1478
1498 1510 1532 1542 1552 1553 1545 1544 1532 1516 1515 1517 1518 1520 1522 1523 1523 1524 1524 1523 1522 1521 1519 1517 1515 1513 1511 1508 1505 1503 1500 1497 1494 1492 1489 1486 1484 1482 1480 1479 1478 1477 1476 1475 1475 1474 1474 1474 1474
1499 1506 1508 1529 1542 1554 1549 1540 1527 1516 1516 1516 1518 1519 1521 1522 1522 1522 1522 1521 1519 1518 1516 1514 1512 1510 1507 1504 1502 1499 1496 1493 1491 1488 1485 1482 1480 1477 1476 1474 1473 1472 1471 1470 1469 1468 1468 1468 1468
1493 1497 1513 1528 1546 1553 1547 1543 1538 1523 1519 1517 1517 1518 1519 1520 1521 1520 1519 1518 1516 1515 1513 1511 1508 1506 1503 1501 1498 1495 1492 1489 1486 1483 1481 1478 1476 1474 1472 1470 1468 1466 1465 1464 1463 1462 1462 1462 1462
1497 1501 1513 1527 1533 1549 1553 1544 1518 1516 1515 1515 1516 1516 1518 1518 1518 1518 1516 1515 1513 1512 1510 1507 1505 1502 1500 1497 1494 1491 1488 1485 1482 1479 1476 1474 1472 1470 1468 1465 1463 1462 1460 1459 1457 1456 1455 1455 1455
1494 1499 1510 1526 1529 1536 1544 1541 1510 1510 1511 1512 1514 1515 1516 1516 1515 1515 1513 1512 1510 1508 1506 1503 1501 1498 1495 1493 1490 1487 1484 1480 1477 1475 1472 1470 1467 1465 1463 1461 1459 1457 1455 1453 1452 1450 1449 1448 1448